Location: Fort Wayne
(41.1310°N, 85.1290°W)
Time: 08:30:27
(UTC-04:00)

Courier 1B Rocket - All Passes

Search period start: 22 October 2014 00:00
Search period end: 01 November 2014 00:00
Orbit: 921 x 1202 km, 28.3° (Epoch: 20 October)

Date Brightness Start Highest point End Pass type
(mag) Time Alt. Az. Time Alt. Az. Time Alt. Az.
22 Oct - 04:56:16 10° SSW 05:02:00 23° SSE 05:07:41 10° ESE visible
22 Oct - 06:48:16 10° SW 06:54:52 31° S 07:01:16 10° ESE visible
22 Oct - 08:41:39 10° WSW 08:47:43 26° SSW 08:53:32 10° SE daylight
22 Oct - 10:37:10 10° SW 10:40:13 13° SSW 10:43:12 10° S daylight
23 Oct - 03:56:12 10° SSW 04:01:09 18° SSE 04:06:06 10° ESE visible
23 Oct - 05:47:25 10° SW 05:53:55 29° S 06:00:20 10° ESE visible
23 Oct - 07:40:23 10° WSW 07:46:51 29° S 07:53:05 10° SE daylight
23 Oct - 09:34:47 10° WSW 09:39:31 18° SSW 09:44:05 10° SSE daylight
24 Oct - 02:56:49 10° S 03:00:21 14° SSE 03:03:54 10° SE visible
24 Oct - 04:46:47 10° SW 04:53:00 27° SSE 04:59:13 10° ESE visible
24 Oct - 06:39:17 10° WSW 06:45:55 31° S 06:52:25 10° SE visible
24 Oct - 08:33:04 10° WSW 08:38:44 22° SSW 08:44:13 10° SSE daylight
25 Oct - 03:46:25 10° SSW 03:52:06 23° SSE 03:57:52 10° ESE visible
25 Oct - 05:38:20 10° SW 05:44:58 31° S 05:51:33 10° ESE visible
25 Oct - 07:31:39 10° WSW 07:37:52 27° SSW 07:43:57 10° SE visible
25 Oct - 09:27:02 10° SW 09:30:27 14° SSW 09:33:49 10° S daylight
26 Oct - 02:46:26 10° SSW 02:51:16 18° SSE 02:56:12 10° ESE visible
26 Oct - 04:37:33 10° SW 04:44:01 29° S 04:50:32 10° ESE visible
26 Oct - 06:30:26 10° WSW 06:36:57 30° S 06:43:24 10° SE visible
26 Oct - 08:24:45 10° WSW 08:29:42 18° SSW 08:34:32 10° SSE daylight
27 Oct - 01:47:10 10° S 01:50:30 13° SSE 01:53:54 10° SE night (unlit)
27 Oct - 03:37:00 10° SW 03:43:06 26° SSE 03:49:19 10° ESE visible
27 Oct - 05:29:24 10° WSW 05:36:00 31° S 05:42:38 10° SE visible
27 Oct - 07:23:05 10° WSW 07:28:52 23° SSW 07:34:33 10° SSE visible
28 Oct - 02:36:43 10° SSW 02:42:14 22° SSE 02:47:54 10° ESE night (unlit)
28 Oct - 04:28:32 10° SW 04:35:03 31° S 04:41:41 10° ESE visible
28 Oct - 06:21:44 10° WSW 06:27:58 27° SSW 06:34:11 10° SE visible
28 Oct - 08:17:00 10° SW 08:20:37 14° SSW 08:24:12 10° S daylight
29 Oct - 01:36:51 10° SSW 01:41:26 18° SSE 01:46:10 10° ESE night (unlit)
29 Oct - 03:27:51 10° SW 03:34:07 29° S 03:40:35 10° ESE visible
29 Oct - 05:20:36 10° WSW 05:27:02 29° S 05:33:33 10° SE visible
29 Oct - 07:14:49 10° WSW 07:19:49 18° SSW 07:24:47 10° SSE visible
30 Oct - 00:37:45 10° S 00:40:43 13° SSE 00:43:46 10° SE night (unlit)
30 Oct - 02:27:23 10° SW 02:33:14 26° SSE 02:39:19 10° ESE night (unlit)
30 Oct - 04:19:39 10° WSW 04:26:06 31° S 04:32:42 10° SE visible
30 Oct - 06:13:14 10° WSW 06:18:58 23° SSW 06:24:43 10° SSE visible
31 Oct - 01:27:12 10° SSW 01:32:25 22° SSE 01:37:51 10° ESE night (unlit)
31 Oct - 03:18:53 10° SW 03:25:10 30° S 03:31:42 10° ESE visible
31 Oct - 05:11:58 10° WSW 05:18:04 26° SSW 05:24:16 10° SE visible
31 Oct - 07:07:09 10° SW 07:10:45 14° SSW 07:14:21 10° S visible
